Weather Roundup
Issued by NWS Chicago, IL

Home | Current Version | Previous Version | Graphics & Text | Print | Product List | Glossary On
Versions: 1 2 3 4 5 6 7 8 9 10 11 12 13 14 15 16 17 18 19 20 21 22 23 24 25 26 27 28 29 30 31 32 33 34 35 36 37 38 39 40 41 42 43 44 45 46 47 48 49 50
128
NZUS59 KLOT 220303
HRRLOT

CHICAGO AREA WEATHER ROUNDUP
NATIONAL WEATHER SERVICE CHICAGO/ROMEOVILLE IL
1000 PM CDT MON AUG 21 2017

NOTE: "FAIR" INDICATES FEW OR NO CLOUDS BELOW 12,000 FEET WITH NO
SIGNIFICANT WEATHER AND/OR OBSTRUCTIONS TO VISIBILITY.

* THESE STATIONS ARE NOT UNDER NWS QUALITY CONTROL. THEY ALSO MAY NOT
  REPORT WEATHER SUCH AS PRECIPITATION OR FOG.

ILZ005-006-012>014-019>023-220400-
NORTHEAST ILLINOIS

CITY           SKY/WX    TMP DP  RH WIND       PRES   REMARKS
OHARE          CLOUDY    77  67  71 SW8       29.93F
MIDWAY         CLOUDY    78  71  79 S8        29.94F HX  80
AURORA         CLOUDY    74  70  87 S5        29.96F
LANSING*       PTCLDY    74  69  83 S7        29.96F
JOLIET*        CLOUDY    76  73  90 CALM      29.96F
WAUKEGAN       CLOUDY    76  69  79 SW10      29.92F
DUPAGE AIRPORT MOCLDY    74  70  87 SW10      29.94F
WHEELING       MOCLDY    77  69  76 SW8       29.94F
MORRIS*        CLOUDY    73  70  88 CALM      29.95F
NORTHERLY ISL    N/A     78  68  71 S9          N/A  HX  80
$$

WIZ051-052-058>065-066-070>072-220400-
SOUTHEAST WISCONSIN

CITY           SKY/WX    TMP DP  RH WIND       PRES   REMARKS
MILWAUKEE      CLOUDY    76  69  79 SW10      29.90F
KENOSHA*       CLOUDY    76  69  79 SW9       29.92F
RACINE*        CLOUDY    76  70  82 SW9       29.92F
$$

INZ001>003-010>013-019-020-220400-
NORTHWEST INDIANA

CITY           SKY/WX    TMP DP  RH WIND       PRES   REMARKS
GARY*          PTCLDY    79  72  78 S5        29.97S HX  82
MICHIGAN CITY* NOT AVBL
RENSSELAER*    NOT AVBL
VALPARAISO     PTCLDY    77  71  82 SW9       29.99S
$$

LMZ740>746-220400-
SOUTHERN LAKE MICHIGAN

STATION/POSITION TIME  SKY/WX   TEMP WIND        PRES    VSBY
                                AIR  DIR/SP/G
                 (UTC)          (F)  (DEG/KT/KT) (MB)    (MI)
HARRISON CRIB    0240            79  210/ 16/ 17   N/A
BURNHAM HARBOR   NOT AVBL
CALUMET HARBOR   0230            78  200/  5/  7 1014.0F
BURNS HARBOR     0240            78  190/ 10/ 14 1014.9F
MICHIGAN CITY    0240            78  170/ 12/ 14   N/A
$$

ABBREVIATIONS USED IN REMARKS
   TC - TEMPERATURE IN CELSIUS
  WCI - WIND CHILL INDEX
   HX - HEAT INDEX
  VSB - VISIBILITY
$$




USA.gov is the U.S. government's official web portal to all federal, state and local government web resources and services.